Flag for Brazil Weather past 2 weeks in Maceió, Alagoas, Brazil

Now
73 °F

Passing clouds.


Feels Like: 73 °F
Forecast: N/A
Wind: 3 mph from Southeast

Location: Maceio Aeroporto

Current Time: Dec 25, 2014 at 8:40:08 PM

Latest Report: Dec 25, 2014 at 8:00 PM


Visibility: N/A

Pressure: 30.01 "Hg

Humidity: 83%

Dew point: 68 °F

Location of MaceióLocation

Historic Weather in Maceió — Graph

°F

Maceió temperature yesterday

Maximum temperature yesterday: 88 °F (at 11:00 AM)
Minimum temperature yesterday: 72 °F (at 4:00 AM)
Average temperature yesterday: 79 °F

Past Weeks' High & Low Weather Summary

 TemperatureHumidityPressure
High90 °F (Dec 23, 1:00 PM)100% (Dec 11, 5:00 AM)30.04 "Hg (Dec 11, 5:00 AM)
Low66 °F (Dec 14, 5:00 AM)46% (Dec 22, 1:00 PM)29.86 "Hg (Dec 14, 2:00 PM)
Average78 °F80%29.94 "Hg
* Reported Dec 10 7:00 PM — Dec 25 7:00 PM, Maceió, Weather by CustomWeather, © 2014

Note: Actual official high and low records may vary slightly from our data, if they occured in-between our weather recording intervals... More about our weather records

Advertising

Maceió weather history for previous 24 hours

 ConditionsComfort  
Time TempWeatherWind HumidityBarometerVisibility
7:00 PM
Dec 25
73 °FPassing clouds.7 mph83%30.01 "HgN/A
6:00 PM75 °FPassing clouds.8 mph78%29.98 "HgN/A
5:00 PM79 °FPassing clouds.13 mph70%29.98 "HgN/A
4:00 PM82 °FScattered clouds.10 mph58%29.95 "HgN/A
3:00 PM82 °FScattered clouds.12 mph55%29.98 "HgN/A
2:00 PM84 °FScattered clouds.13 mph51%29.98 "HgN/A
1:00 PM82 °FScattered clouds.13 mph58%30.01 "HgN/A
12:00 PM82 °FScattered clouds.13 mph58%30.01 "HgN/A
11:00 AM82 °FScattered clouds.13 mph62%30.04 "HgN/A
10:00 AM81 °FPartly sunny.9 mph74%30.04 "HgN/A
9:00 AM75 °FPartly sunny.10 mph94%30.04 "HgN/A
8:00 AM73 °FLight rain. Partly sunny.10 mph94%30.04 "Hg5 mi
7:00 AM75 °FScattered clouds.3 mph94%30.01 "HgN/A
6:00 AM73 °FPartly sunny.No wind94%30.01 "HgN/A
5:00 AM72 °FPassing clouds.3 mph94%29.98 "HgN/A
4:00 AM72 °FClear.No wind100%29.98 "Hg10 mi
3:00 AM72 °FClear.3 mph100%29.95 "Hg10 mi
2:00 AM72 °FPassing clouds.3 mph100%29.95 "HgN/A
1:00 AM73 °FPassing clouds.3 mph94%29.98 "HgN/A
12:00 AM73 °FClear.3 mph94%29.98 "Hg10 mi
11:00 PM
Dec 24
75 °FPassing clouds.5 mph89%30.01 "HgN/A
10:00 PM75 °FPassing clouds.6 mph89%30.01 "HgN/A
9:00 PM75 °FPassing clouds.6 mph89%29.98 "HgN/A
8:00 PM77 °FPassing clouds.7 mph83%29.98 "HgN/A
Weather by CustomWeather, © 2014

See weather overviewHow to use our weather pages